Find Local Weather

World > North America > United States > Wisconsin

Eagle River, Wisconsin Regional Weather

Lat: 45.91N, Lon: 89.25W
Wx Zone: WIZ005
Warning FLW WEATHER ALERT - (More Info. Click Here) Warning
Feedback
Expires:201808142000;;061444
ASUS43 KMKX 141921
RWRWI 

WISCONSIN REGIONAL WEATHER ROUNDUP
NATIONAL WEATHER SERVICE MILWAUKEE/SULLIVAN WI
200 PM CDT TUE AUG 14 2018

NOTE: "FAIR" INDICATES FEW OR NO CLOUDS BELOW 12,000 FEET WITH NO
SIGNIFICANT WEATHER AND/OR OBSTRUCTIONS TO VISIBILITY.


WIZ003>005-009-010-017-018-142000-
NORTH CENTRAL WISCONSIN
  
CITY           SKY/WX    TMP DP  RH WIND       PRES   REMARKS
MANITOWISH WTR FAIR      82  71  68 W8        29.93F HX  86           
ARBOR VITAE    FAIR      83  70  64 W5        29.93F HX  87           
WOODRUFF       FAIR      83  70  64 W5        29.93F HX  87           
RHINELANDER    FAIR      88  68  51 W13       29.95F HX  91           
EAGLE RIVER    FAIR      78  69  73 SW5       29.93F HX  80           
LAND O LAKES   FAIR      82  69  63 NW6       29.94F HX  86           
PHILLIPS       FAIR      84  71  64 SW10      29.93F HX  89           
TOMAHAWK       FAIR      82  67  59 SW6       29.96S HX  85           
MEDFORD        FAIR      80  65  60 W3        29.96F HX  82           
MERRILL        FAIR      83  68  60 W8        29.96S HX  86           
$$
 

SKY/WX - Weather  TMP - Temperature  DP - Dewpoint  RH - Relative Humidity
WIND - Wind Direction/Speed PRES - Barometric Pressure